date,time,DOY,Ta_1_1_1,RH_1_1_1,LWin_1_1_1,LWout_1_1_1,SWin_1_1_1,SWout_1_1_1,PPFD_1_1_1,SWC_1_1_1,Ts_1_1_1
[yyyy-mm-dd],[HH:MM],[ddd.ddd],[K],[%],[W+1m-2],[W+1m-2],[W+1m-2],[W+1m-2],[µmol+1m-2s-1],[m+3m-3],[K]
2012-10-24,00:30,298.020,286.43793103448280,99.994444444444426,-5.2972413793103437,-4.1027586206896549,-0.14517241379310344,-8.86206896551723772E-002,3.79310344827586124E-003,-9999.0,279.90999999999991
2012-10-24,01:00,298.041,286.60900000000009,99.992962962962949,-5.4993333333333343,-4.4023333333333330,-0.20499999999999996,-0.13599999999999998,3.00000000000000006E-003,-9999.0,279.90999999999991
2012-10-24,01:30,298.062,286.57800000000003,99.995862068965508,-5.8533333333333326,-4.4333333333333336,-0.25533333333333330,-0.17866666666666670,1.66666666666666677E-003,-9999.0,279.90999999999991
2012-10-24,02:00,298.083,286.59299999999996,99.995999999999967,-5.8566666666666665,-4.1806666666666654,-0.26966666666666672,-0.18400000000000008,3.66666666666666616E-003,-9999.0,279.90999999999991
2012-10-24,02:30,298.104,286.60733333333337,99.991851851851848,-5.7236666666666673,-4.1179999999999994,-0.24666666666666670,-0.17000000000000001,5.33333333333333402E-003,-9999.0,279.90999999999991
2012-10-24,03:00,298.124,286.60300000000001,99.994814814814788,-6.1876666666666669,-4.6543333333333328,-0.31500000000000000,-0.21700000000000003,2.66666666666666658E-003,-9999.0,279.90999999999991
2012-10-24,03:30,298.145,286.60033333333342,99.995185185185164,-6.0043333333333333,-4.3576666666666659,-0.30066666666666664,-0.20400000000000007,2.66666666666666658E-003,-9999.0,279.90999999999991
2012-10-24,04:00,298.166,286.63300000000004,99.992592592592572,-5.7793333333333345,-4.1860000000000008,-0.24300000000000002,-0.16500000000000001,3.33333333333333268E-003,-9999.0,279.90999999999991
2012-10-24,04:30,298.187,286.71666666666664,99.994615384615386,-5.9569999999999999,-4.3153333333333332,-0.25866666666666671,-0.16100000000000000,6.66666666666666536E-004,-9999.0,279.90999999999991
2012-10-24,05:00,298.208,286.78666666666675,99.995384615384609,-5.9113333333333342,-4.2503333333333337,-0.23633333333333334,-0.15733333333333338,3.33333333333333311E-003,-9999.0,279.90999999999991
2012-10-24,05:30,298.229,286.65100000000001,99.994285714285681,-6.4856666666666660,-4.5629999999999997,-0.43600000000000005,-0.29433333333333334,2.33333333333333353E-003,-9999.0,279.90999999999991
2012-10-24,06:00,298.249,286.75100000000003,99.994999999999990,-6.3793333333333333,-4.4249999999999998,-0.26166666666666671,-0.16633333333333331,3.33333333333333311E-003,-9999.0,279.90999999999991
2012-10-24,06:30,298.270,286.87366666666668,99.993703703703687,-6.4246666666666670,-3.9526666666666657,-0.26100000000000007,0.13400000000000001,0.71499999999999997,-9999.0,279.90999999999991
2012-10-24,07:00,298.291,286.89233333333340,99.990833333333327,-6.0546666666666669,-3.7526666666666668,-1.60000000000000073E-002,2.1933333333333329,5.3416666666666659,-9999.0,279.90999999999991
2012-10-24,07:30,298.312,287.08433333333329,99.992499999999964,-5.9730000000000008,-2.7109999999999999,0.57366666666666644,9.0236666666666654,21.886000000000003,-9999.0,279.90999999999991
2012-10-24,08:00,298.333,287.21933333333334,99.994827586206881,-5.8649999999999984,-2.6723333333333326,0.71099999999999997,11.912666666666667,29.943333333333332,-9999.0,279.90999999999991
2012-10-24,08:30,298.354,287.37500000000000,99.995185185185164,-5.9916666666666663,-2.4543333333333339,3.4086666666666674,41.667333333333332,97.366333333333358,-9999.0,279.90999999999991
2012-10-24,09:00,298.374,287.59066666666672,99.993199999999973,-6.7299999999999995,-3.0273333333333334,7.5383333333333322,80.548666666666648,184.78566666666669,-9999.0,279.90999999999991
2012-10-24,09:30,298.395,287.71299999999997,99.996363636363640,-6.7350000000000003,-3.0903333333333332,9.8906666666666663,93.386666666666628,215.92200000000000,-9999.0,279.90999999999991
2012-10-24,10:00,298.416,288.07900000000001,99.996296296296265,-6.3329999999999993,-4.1096666666666666,6.7629999999999999,82.563666666666677,193.52200000000002,-9999.0,279.90999999999991
2012-10-24,10:30,298.437,288.11000000000001,99.997500000000002,-6.5423333333333336,-4.3820000000000006,16.919333333333334,157.07766666666666,355.59699999999998,-9999.0,279.90999999999991
2012-10-24,11:00,298.458,288.24766666666670,99.997199999999978,-7.4629999999999992,-5.8180000000000014,14.757333333333337,146.25433333333331,335.30499999999989,-9999.0,279.90999999999991
2012-10-24,11:30,298.479,288.40466666666663,99.997499999999988,-7.5289999999999999,-6.3806666666666674,13.199666666666667,146.62199999999999,333.97166666666664,-9999.0,279.90999999999991
2012-10-24,12:00,298.499,288.52866666666677,99.995454545454535,-8.0165517241379298,-7.5776666666666674,8.0933333333333319,96.059333333333342,225.53466666666654,-9999.0,279.90999999999991
2012-10-24,12:30,298.520,288.64400000000001,99.998571428571410,-7.9323333333333332,-7.9253333333333318,4.7566666666666668,70.353333333333325,169.79266666666666,-9999.0,279.90999999999991
2012-10-24,13:00,298.541,288.71200000000005,99.997142857142848,-7.2193333333333340,-7.4886666666666688,9.3446666666666633,114.14466666666668,261.32666666666665,-9999.0,279.90999999999991
2012-10-24,13:30,298.562,288.78866666666670,99.996000000000009,-6.4693333333333332,-8.2795652173913066,10.546666666666663,129.12966666666665,288.76633333333342,-9999.0,279.90999999999991
2012-10-24,14:00,298.583,289.23800000000000,99.997307692307686,-7.0596666666666685,-9.2020833333333325,6.7223333333333333,88.437333333333328,199.79366666666667,-9999.0,279.90999999999991
2012-10-24,14:30,298.604,289.59066666666666,99.995000000000005,-7.8133333333333335,-9.3573333333333348,2.2159999999999997,39.237333333333346,94.359666666666669,-9999.0,279.90999999999991
2012-10-24,15:00,298.624,289.43866666666673,99.953636363636392,-7.9326666666666670,-8.3406666666666673,1.2503333333333331,25.897333333333332,64.349666666666650,-9999.0,279.90999999999991
2012-10-24,15:30,298.645,289.52033333333344,99.318333333333342,-7.4959999999999987,-7.9699999999999998,1.4980000000000000,24.636999999999997,59.740666666666677,-9999.0,279.90999999999991
2012-10-24,16:00,298.666,289.52233333333339,99.264666666666699,-7.4789999999999992,-7.5763333333333316,0.71833333333333338,15.658333333333333,37.704333333333338,-9999.0,279.90999999999991
2012-10-24,16:30,298.687,289.49133333333327,99.521666666666661,-7.5533333333333337,-7.1740000000000013,0.10166666666666670,7.3699999999999992,18.067666666666671,-9999.0,279.90999999999991
2012-10-24,17:00,298.708,289.51266666666669,99.848999999999990,-6.6860000000000026,-6.1889999999999992,-0.14733333333333334,1.9103333333333332,4.9873333333333347,-9999.0,279.90999999999991
2012-10-24,17:30,298.729,289.50033333333346,99.927999999999983,-5.2459999999999996,-4.8873333333333324,-0.24799999999999994,-0.19166666666666671,0.13699999999999996,-9999.0,279.90999999999991
2012-10-24,18:00,298.749,289.39800000000008,99.994999999999990,-5.0186666666666655,-4.4913333333333325,-0.12266666666666666,-0.10466666666666667,3.33333333333333268E-004,-9999.0,279.90999999999991
2012-10-24,18:30,298.770,289.45666666666665,99.995599999999996,-5.1623333333333337,-4.8400000000000007,-0.13833333333333336,-0.12200000000000003,3.33333333333333322E-004,-9999.0,279.90999999999991
2012-10-24,19:00,298.791,289.48633333333339,99.993749999999991,-5.6549999999999994,-5.4923333333333346,-0.16100000000000003,-0.15366666666666670,1.66666666666666677E-003,-9999.0,279.90999999999991
2012-10-24,19:30,298.812,289.37366666666662,99.995454545454550,-5.6216666666666679,-5.7886666666666668,-0.18033333333333335,-0.20400000000000007,1.33333333333333329E-003,-9999.0,279.90999999999991
2012-10-24,20:00,298.833,289.39833333333337,99.991304347826073,-5.9296666666666678,-6.1550000000000002,-0.31200000000000000,-0.33866666666666662,1.15648231731787138E-019,-9999.0,279.90999999999991
2012-10-24,20:30,298.854,289.51066666666674,99.762666666666661,-6.0386666666666651,-6.2126666666666663,-0.32133333333333330,-0.37800000000000006,2.99999999999999963E-003,-9999.0,279.90999999999991
2012-10-24,21:00,298.874,289.86700000000002,99.020333333333355,-5.8496666666666659,-5.8093333333333321,-0.16433333333333339,-0.26000000000000001,6.66666666666666644E-004,-9999.0,279.90999999999991
2012-10-24,21:30,298.895,289.76366666666672,98.791333333333327,-4.2833333333333332,-4.7350000000000012,-0.30433333333333329,-0.70566666666666678,6.66666666666666644E-004,-9999.0,279.90999999999991
2012-10-24,22:00,298.916,288.70899999999995,99.323666666666668,-4.6593333333333335,-6.4675862068965522,-0.35133333333333344,-0.64933333333333343,3.33333333333333322E-004,-9999.0,279.90999999999991
2012-10-24,22:30,298.937,287.47733333333332,99.533333333333317,-6.4946666666666628,-7.5286666666666662,-1.0680000000000003,-1.1619999999999999,1.00000000000000002E-003,-9999.0,279.90999999999991
2012-10-24,23:00,298.958,286.30166666666656,99.504000000000033,-5.8326666666666673,-7.1083333333333334,-0.79133333333333344,-0.90433333333333332,0.0000000000000000,-9999.0,279.90999999999991
2012-10-24,23:30,298.979,285.39133333333336,99.989999999999995,-7.4853333333333341,-6.9989999999999988,-1.1163333333333332,-1.0943333333333338,0.0000000000000000,-9999.0,279.90999999999991
2012-10-25,00:00,299.000,284.64433333333335,99.995769230769213,-7.0879999999999983,-7.3126666666666686,-1.1713333333333331,-1.1749999999999998,0.0000000000000000,-9999.0,279.90999999999991
